Location: Mercogliano
(40.9167°N, 14.7333°E)
Time: 21:59:00
(UTC+00:00)

CZ-2C R/B - Pass Details

Date: 22 January 2021
Orbit: 785 x 870 km, 98.2° (Epoch: 06 March)

Event Time Altitude Azimuth Distance (km) Brightness Sun altitude
Exits shadow 18:48:58 38° 345° (NNW) 1,297 3.7 -30.6°
Maximum altitude 18:50:53 57° 288° (WNW) 1,015 3.2 -30.9°
Drops below altitude 10° 18:56:21 10° 211° (SSW) 2,508 5.4 -32.0°
Sets 18:58:46 0° 207° (SSW) 3,443 6.2 -32.4°
